Location: Unspecified
(0.0000°N, 0.0000°E)
Time: 17:18:30
(UTC+00:00)

SR - All Passes

Search period start: 18 June 2019 00:00
Search period end: 28 June 2019 00:00
Orbit: 582 x 874 km, 66.7° (Epoch: 17 June)

Date Brightness Start Highest point End Pass type
(mag) Time Alt. Az. Time Alt. Az. Time Alt. Az.
18 Jun - 02:52:27 10° S 02:57:00 59° ESE 03:01:15 10° NNE visible
18 Jun - 13:39:40 10° ENE 13:40:27 10° ENE 13:41:14 10° E daylight
18 Jun - 15:16:49 10° NNW 15:22:11 55° WSW 15:27:53 10° S daylight
19 Jun - 02:04:00 10° SSE 02:07:24 20° ESE 02:10:37 10° ENE night (unlit)
19 Jun - 03:46:17 10° WSW 03:49:07 16° WNW 03:51:52 10° NNW visible
19 Jun - 14:27:14 10° N 14:32:37 61° ENE 14:38:22 10° SSE daylight
20 Jun - 02:55:15 10° SW 02:59:39 48° WNW 03:03:47 10° N visible
20 Jun - 13:38:42 10° NNE 13:43:08 25° ENE 13:47:46 10° SE daylight
20 Jun - 15:20:29 10° WNW 15:24:58 25° WSW 15:29:40 10° SSW daylight
21 Jun - 02:05:39 10° S 02:10:08 53° ESE 02:14:20 10° NNE night (unlit)
21 Jun - 14:29:55 10° NNW 14:35:21 60° WSW 14:41:06 10° S daylight
22 Jun - 01:17:22 10° SSE 01:20:31 18° ESE 01:23:32 10° ENE night (unlit)
22 Jun - 02:59:12 10° WSW 03:02:15 18° WNW 03:05:12 10° NNW night (unlit)
22 Jun - 13:40:25 10° N 13:45:48 56° ENE 13:51:30 10° SSE daylight
22 Jun - 15:26:36 10° W 15:27:49 11° WSW 15:29:03 10° SW daylight
23 Jun - 02:08:21 10° SSW 02:12:47 53° WNW 02:16:58 10° N night (unlit)
23 Jun - 12:52:00 10° NNE 12:56:18 23° ENE 13:00:47 10° ESE daylight
23 Jun - 14:33:29 10° NW 14:38:08 27° WSW 14:42:59 10° SSW daylight
24 Jun - 01:18:52 10° S 01:23:15 48° ESE 01:27:23 10° NE night (unlit)
24 Jun - 13:43:01 10° NNW 13:48:31 65° WSW 13:54:19 10° S daylight
25 Jun - 00:30:45 10° SSE 00:33:38 17° ESE 00:36:25 10° ENE night (unlit)
25 Jun - 02:12:10 10° WSW 02:15:23 20° WNW 02:18:31 10° NNW night (unlit)
25 Jun - 12:53:37 10° N 12:58:58 52° ENE 13:04:38 10° SSE daylight
25 Jun - 14:39:00 10° W 14:40:58 12° WSW 14:42:59 10° SW daylight
26 Jun - 01:21:28 10° SSW 01:25:55 59° WNW 01:30:07 10° N night (unlit)
26 Jun - 12:05:18 10° NNE 12:09:28 22° ENE 12:13:47 10° ESE daylight
26 Jun - 13:46:29 10° NW 13:51:18 29° WSW 13:56:17 10° S daylight
27 Jun - 00:32:04 10° S 00:36:23 43° ESE 00:40:27 10° NE night (unlit)
27 Jun - 12:56:09 10° NNW 13:01:41 70° WSW 13:07:32 10° SSE daylight
27 Jun - 23:44:11 10° SSE 23:46:46 15° ESE 23:49:16 10° ENE night (unlit)
